TimeHST,TemperatureF,Dew PointF,Humidity,Sea Level PressureIn,VisibilityMPH,Wind Direction,Wind SpeedMPH,Gust SpeedMPH,PrecipitationIn,Events,Conditions,WindDirDegrees,DateUTC
12:54 AM,71.1,60.1,68,30.06,10.0,NE,15.0,20.7,N/A,,Clear,50,2012-12-27 10:54:00
1:54 AM,71.1,62.1,73,30.04,10.0,NNE,6.9,-,N/A,,Partly Cloudy,30,2012-12-27 11:54:00
2:02 AM,69.8,62.6,78,30.03,10.0,SE,8.1,-,N/A,,Partly Cloudy,140,2012-12-27 12:02:00
2:54 AM,64.9,60.1,84,30.04,10.0,South,4.6,-,N/A,,Clear,170,2012-12-27 12:54:00
3:54 AM,64.0,57.9,80,30.04,10.0,SE,4.6,-,N/A,,Clear,130,2012-12-27 13:54:00
4:54 AM,64.0,57.9,80,30.02,10.0,Calm,Calm,-,N/A,,Clear,0,2012-12-27 14:54:00
5:54 AM,61.0,57.0,87,30.02,10.0,SE,6.9,-,N/A,,Clear,130,2012-12-27 15:54:00
6:54 AM,60.1,55.9,86,30.02,10.0,SSE,6.9,-,N/A,,Clear,160,2012-12-27 16:54:00
7:54 AM,63.0,57.0,81,30.04,10.0,SSE,6.9,-,N/A,,Clear,160,2012-12-27 17:54:00
8:54 AM,71.1,57.9,63,30.04,10.0,Calm,Calm,-,N/A,,Clear,0,2012-12-27 18:54:00
9:54 AM,75.9,59.0,56,30.04,10.0,Calm,Calm,-,N/A,,Partly Cloudy,0,2012-12-27 19:54:00
10:54 AM,78.1,62.1,58,30.02,10.0,ENE,12.7,-,N/A,,Partly Cloudy,70,2012-12-27 20:54:00
11:54 AM,81.0,63.0,54,29.99,10.0,ENE,17.3,21.9,N/A,,Partly Cloudy,60,2012-12-27 21:54:00
12:54 PM,81.0,63.0,54,29.97,10.0,NE,16.1,23.0,N/A,,Scattered Clouds,50,2012-12-27 22:54:00
1:54 PM,82.0,63.0,52,29.94,10.0,NE,16.1,24.2,N/A,,Scattered Clouds,40,2012-12-27 23:54:00
2:54 PM,81.0,63.0,54,29.93,10.0,ENE,15.0,20.7,N/A,,Scattered Clouds,70,2012-12-28 00:54:00
3:54 PM,81.0,61.0,50,29.92,10.0,East,11.5,19.6,N/A,,Scattered Clouds,100,2012-12-28 01:54:00
4:54 PM,78.1,59.0,52,29.94,10.0,ENE,8.1,21.9,N/A,,Partly Cloudy,60,2012-12-28 02:54:00
5:54 PM,73.9,62.1,66,29.96,10.0,East,9.2,-,N/A,,Scattered Clouds,80,2012-12-28 03:54:00
6:54 PM,73.0,61.0,66,29.98,10.0,East,8.1,-,N/A,,Partly Cloudy,80,2012-12-28 04:54:00
7:54 PM,70.0,62.1,76,29.99,10.0,SE,5.8,-,N/A,,Partly Cloudy,140,2012-12-28 05:54:00
8:54 PM,69.1,61.0,75,30.01,10.0,ESE,5.8,-,N/A,,Clear,110,2012-12-28 06:54:00
9:54 PM,66.9,62.1,84,30.01,10.0,Calm,Calm,-,N/A,,Scattered Clouds,0,2012-12-28 07:54:00
10:54 PM,68.0,61.0,78,30.01,10.0,SE,5.8,-,N/A,,Clear,140,2012-12-28 08:54:00
11:54 PM,63.0,59.0,87,30.00,10.0,South,6.9,-,N/A,,Clear,180,2012-12-28 09:54:00